sat.trackr.live / text

‹ back to catalog

HAWK-14B

NORAD 68436 · 2026-067W

PAYLOAD ACTIVE UNKNOWN

§ Identity

Operator
Country
US
Launch date
2026-03-30
Launch site
AFWTR
Launch vehicle
Mass (kg)
RCS (m²)

External: N2YO · Heavens-Above · Gunter

§ Orbital elements

Epoch: 2026-05-24T19:35:19.979808Z

Period
94.86 min
Inclination
97.4530°
Eccentricity
0.0004285
Mean motion
15.17995609 rev/d
Perigee alt
508.9 km
Apogee alt
514.9 km
Semi-major
6,890.0 km
B*
1.9027e-4
RAAN
103.6073°
Arg perigee
110.8819°
Mean anomaly
249.2874°
Rev number
839

§ Raw data

HAWK-14B1 68436U 26067W   26144.81620347  .00003801  00000+0  19027-3 0  99992 68436  97.4530 103.6073 0004285 110.8819 249.2874 15.17995609  8392

JSON: /api/v1/satellites/68436 · /tle

For live sub-satellite position, see the globe view (requires WebGL).

§ Visibility from observer

Set your observer location to see the next 7 days of passes ≥ 10°. The values pass through the URL so the page stays shareable.

No JS? Fill the form by hand. The geolocation button needs JavaScript.